This is the latest recevied weather packets stored in our database for station/object IW9CSJ-13. If no packets are shown the sender has not sent any weather packets the latest 10 day(s).
| Time | Temp. | Humidity | Pressure | Rain* | Wind** | Luminosity | Snow |
|---|---|---|---|---|---|---|---|
| 1777992020 | 17.22° C | 75% | 1015 hPa | 0 mm | - | - | - |
| 1777989326 | 17.22° C | 77% | 1015.4 hPa | 0 mm | - | - | - |
| 1777989041 | 17.22° C | 78% | 1015.4 hPa | 0 mm | - | - | - |
| 1777986027 | 17.78° C | 77% | 1015.4 hPa | 0 mm | - | - | - |
| 1777984524 | 17.78° C | 76% | 1015.7 hPa | 0 mm | - | - | - |
| 1777984225 | 17.78° C | 76% | 1015.6 hPa | 0 mm | - | - | - |
| 1777981524 | 18.33° C | 74% | 1015.9 hPa | 0 mm | - | - | - |
| 1777980318 | 18.89° C | 72% | 1016 hPa | 0 mm | - | - | - |
| 1777979119 | 18.89° C | 73% | 1016 hPa | 0 mm | - | - | - |
| 1777978516 | 18.89° C | 73% | 1015.9 hPa | 0 mm | - | - | - |
| 1777975521 | 18.89° C | 73% | 1016.1 hPa | 0 mm | - | - | - |
| 1777974923 | 18.89° C | 74% | 1016.1 hPa | 0 mm | - | - | - |
| 1777973718 | 18.33° C | 73% | 1016.3 hPa | 0 mm | - | - | - |
| 1777972219 | 18.89° C | 73% | 1016.2 hPa | 0 mm | - | - | - |
| 1777970438 | 18.89° C | 69% | 1016.2 hPa | 0 mm | - | - | - |
| 1777968921 | 18.89° C | 74% | 1016.1 hPa | 0 mm | - | - | - |
| 1777968324 | 18.33° C | 76% | 1016.1 hPa | 0 mm | - | - | - |
| 1777967123 | 17.78° C | 76% | 1016 hPa | 0 mm | - | - | - |
| 1777962915 | 17.78° C | 69% | 1016.2 hPa | 0 mm | - | - | - |
| 1777962625 | 17.78° C | 69% | 1016.2 hPa | 0 mm | - | - | - |
| 1777961144 | 17.22° C | 64% | 1016.3 hPa | 0 mm | - | - | - |
| 1777959322 | 16.67° C | 58% | 1016.1 hPa | 0 mm | - | - | - |
| 1777959016 | 17.22° C | 58% | 1016.1 hPa | 0 mm | - | - | - |
| 1777958718 | 16.67° C | 58% | 1016.1 hPa | 0 mm | - | - | - |
| 1777958425 | 16.67° C | 57% | 1016.1 hPa | 0 mm | - | - | - |
* Rain latest hour (hover to see other rain measurements)
** Current wind speed in m/s (hover to see current wind gust speed)